Year,Month,Day,Hour,Minute,Value (Times are PST for temperature in C)
2018,10,29,00,00,6.80
2018,10,29,00,01,6.80
2018,10,29,00,02,6.80
2018,10,29,00,03,6.80
2018,10,29,00,04,6.80
2018,10,29,00,05,6.90
2018,10,29,00,06,6.90
2018,10,29,00,07,6.90
2018,10,29,00,08,6.90
2018,10,29,00,09,6.90
2018,10,29,00,10,6.80
2018,10,29,00,11,6.80
2018,10,29,00,12,6.80
2018,10,29,00,13,6.80
2018,10,29,00,14,6.80
2018,10,29,00,15,6.80
2018,10,29,00,16,6.80
2018,10,29,00,17,6.80
2018,10,29,00,18,6.80
2018,10,29,00,19,6.80
2018,10,29,00,20,6.80
2018,10,29,00,21,6.80
2018,10,29,00,22,6.80
2018,10,29,00,23,6.80
2018,10,29,00,24,6.80
2018,10,29,00,25,6.80
2018,10,29,00,26,6.80
2018,10,29,00,27,6.80
2018,10,29,00,28,6.80
2018,10,29,00,29,6.80
2018,10,29,00,30,6.80
2018,10,29,00,31,6.80
2018,10,29,00,32,6.80
2018,10,29,00,33,6.80
2018,10,29,00,34,6.80
2018,10,29,00,35,6.80
2018,10,29,00,36,6.80
2018,10,29,00,37,6.80
2018,10,29,00,38,6.80
2018,10,29,00,39,6.70
2018,10,29,00,40,6.70
2018,10,29,00,41,6.70
2018,10,29,00,42,6.70
2018,10,29,00,43,6.70
2018,10,29,00,44,6.70
2018,10,29,00,45,6.70
2018,10,29,00,46,6.70
2018,10,29,00,47,6.70
2018,10,29,00,48,6.70
2018,10,29,00,49,6.60
2018,10,29,00,50,6.60
2018,10,29,00,51,6.60
2018,10,29,00,52,6.60
2018,10,29,00,53,6.60
2018,10,29,00,54,6.60
2018,10,29,00,55,6.60
2018,10,29,00,56,6.60
2018,10,29,00,57,6.50
2018,10,29,00,58,6.50
2018,10,29,00,59,6.50
2018,10,29,01,00,6.50
2018,10,29,01,01,6.50
2018,10,29,01,02,6.50
2018,10,29,01,03,6.40
2018,10,29,01,04,6.40
2018,10,29,01,05,6.40
2018,10,29,01,06,6.40
2018,10,29,01,07,6.40
2018,10,29,01,08,6.40
2018,10,29,01,09,6.40
2018,10,29,01,10,6.30
2018,10,29,01,11,6.30
2018,10,29,01,12,6.30
2018,10,29,01,13,6.30
2018,10,29,01,14,6.30
2018,10,29,01,15,6.30
2018,10,29,01,16,6.30
2018,10,29,01,17,6.30
2018,10,29,01,18,6.30
2018,10,29,01,19,6.30
2018,10,29,01,20,6.30
2018,10,29,01,21,6.30
2018,10,29,01,22,6.30
2018,10,29,01,23,6.30
2018,10,29,01,24,6.30
2018,10,29,01,25,6.30
2018,10,29,01,26,6.30
2018,10,29,01,27,6.40
2018,10,29,01,28,6.40
2018,10,29,01,29,6.40
2018,10,29,01,30,6.40
2018,10,29,01,31,6.40
2018,10,29,01,32,6.40
2018,10,29,01,33,6.40
2018,10,29,01,34,6.40
2018,10,29,01,35,6.40
2018,10,29,01,36,6.40
2018,10,29,01,37,6.40
2018,10,29,01,38,6.40
2018,10,29,01,39,6.40
2018,10,29,01,40,6.40
2018,10,29,01,41,6.40
2018,10,29,01,42,6.30
2018,10,29,01,43,6.30
2018,10,29,01,44,6.30
2018,10,29,01,45,6.30
2018,10,29,01,46,6.30
2018,10,29,01,47,6.30
2018,10,29,01,48,6.30
2018,10,29,01,49,6.30
2018,10,29,01,50,6.30
2018,10,29,01,51,6.30
2018,10,29,01,52,6.30
2018,10,29,01,53,6.30
2018,10,29,01,54,6.30
2018,10,29,01,55,6.30
2018,10,29,01,56,6.30
2018,10,29,01,57,6.30
2018,10,29,01,58,6.30
2018,10,29,01,59,6.30
2018,10,29,02,00,6.30
2018,10,29,02,01,6.30
2018,10,29,02,02,6.30
2018,10,29,02,03,6.30
2018,10,29,02,04,6.30
2018,10,29,02,05,6.30
2018,10,29,02,06,6.30
2018,10,29,02,07,6.30
2018,10,29,02,08,6.30
2018,10,29,02,09,6.30
2018,10,29,02,10,6.30
2018,10,29,02,11,6.30
2018,10,29,02,12,6.30
2018,10,29,02,13,6.20
2018,10,29,02,14,6.20
2018,10,29,02,15,6.20
2018,10,29,02,16,6.20
2018,10,29,02,17,6.20
2018,10,29,02,18,6.20
2018,10,29,02,19,6.20
2018,10,29,02,20,6.10
2018,10,29,02,21,6.10
2018,10,29,02,22,6.10
2018,10,29,02,23,6.10
2018,10,29,02,24,6.10
2018,10,29,02,25,6.10
2018,10,29,02,26,6.10
2018,10,29,02,27,6.00
2018,10,29,02,28,6.00
2018,10,29,02,29,6.00
2018,10,29,02,30,6.00
2018,10,29,02,31,6.00
2018,10,29,02,32,5.90
2018,10,29,02,33,5.90
2018,10,29,02,34,5.90
2018,10,29,02,35,5.90
2018,10,29,02,36,5.90
2018,10,29,02,37,5.90
2018,10,29,02,38,5.90
2018,10,29,02,39,5.90
2018,10,29,02,40,5.80
2018,10,29,02,41,5.80
2018,10,29,02,42,5.80
2018,10,29,02,43,5.80
2018,10,29,02,44,5.80
2018,10,29,02,45,5.80
2018,10,29,02,46,5.80
2018,10,29,02,47,5.80
2018,10,29,02,48,5.80
2018,10,29,02,49,5.80
2018,10,29,02,50,5.80
2018,10,29,02,51,5.80
2018,10,29,02,52,5.80
2018,10,29,02,53,5.80
2018,10,29,02,54,5.80
2018,10,29,02,55,5.70
2018,10,29,02,56,5.70
2018,10,29,02,57,5.80
2018,10,29,02,58,5.70
2018,10,29,02,59,5.70
2018,10,29,03,00,5.70
2018,10,29,03,01,5.70
2018,10,29,03,02,5.70
2018,10,29,03,03,5.70
2018,10,29,03,04,5.70
2018,10,29,03,05,5.70
2018,10,29,03,06,5.70
2018,10,29,03,07,5.60
2018,10,29,03,08,5.60
2018,10,29,03,09,5.60
2018,10,29,03,10,5.60
2018,10,29,03,11,5.60
2018,10,29,03,12,5.60
2018,10,29,03,13,5.60
2018,10,29,03,14,5.60
2018,10,29,03,15,5.60
2018,10,29,03,16,5.60
2018,10,29,03,17,5.60
2018,10,29,03,18,5.70
2018,10,29,03,19,5.70
2018,10,29,03,20,5.70
2018,10,29,03,21,5.70
2018,10,29,03,22,5.70
2018,10,29,03,23,5.70
2018,10,29,03,24,5.70
2018,10,29,03,25,5.70
2018,10,29,03,26,5.70
2018,10,29,03,27,5.70
2018,10,29,03,28,5.70
2018,10,29,03,29,5.60
2018,10,29,03,30,5.70
2018,10,29,03,31,5.70
2018,10,29,03,32,5.70
2018,10,29,03,33,5.70
2018,10,29,03,34,5.70
2018,10,29,03,35,5.60
2018,10,29,03,36,5.60
2018,10,29,03,37,5.60
2018,10,29,03,38,5.60
2018,10,29,03,39,5.60
2018,10,29,03,40,5.60
2018,10,29,03,41,5.60
2018,10,29,03,42,5.50
2018,10,29,03,43,5.50
2018,10,29,03,44,5.50
2018,10,29,03,45,5.50
2018,10,29,03,46,5.50
2018,10,29,03,47,5.50
2018,10,29,03,48,5.50
2018,10,29,03,49,5.50
2018,10,29,03,50,5.40
2018,10,29,03,51,5.40
2018,10,29,03,52,5.40
2018,10,29,03,53,5.40
2018,10,29,03,54,5.40
2018,10,29,03,55,5.40
2018,10,29,03,56,5.40
2018,10,29,03,57,5.30
2018,10,29,03,58,5.30
2018,10,29,03,59,5.30
2018,10,29,04,00,5.30
2018,10,29,04,01,5.30
2018,10,29,04,02,5.30
2018,10,29,04,03,5.30
2018,10,29,04,04,5.30
2018,10,29,04,05,5.30
2018,10,29,04,06,5.30
2018,10,29,04,07,5.20
2018,10,29,04,08,5.30
2018,10,29,04,09,5.30
2018,10,29,04,10,5.20
2018,10,29,04,11,5.20
2018,10,29,04,12,5.20
2018,10,29,04,13,5.20
2018,10,29,04,14,5.20
2018,10,29,04,15,5.20
2018,10,29,04,16,5.20
2018,10,29,04,17,5.20
2018,10,29,04,18,5.20
2018,10,29,04,19,5.20
2018,10,29,04,20,5.20
2018,10,29,04,21,5.20
2018,10,29,04,22,5.20
2018,10,29,04,23,5.10
2018,10,29,04,24,5.10
2018,10,29,04,25,5.10
2018,10,29,04,26,5.10
2018,10,29,04,27,5.10
2018,10,29,04,28,5.10
2018,10,29,04,29,5.10
2018,10,29,04,30,5.10
2018,10,29,04,31,5.10
2018,10,29,04,32,5.10
2018,10,29,04,33,5.10
2018,10,29,04,34,5.10
2018,10,29,04,35,5.10
2018,10,29,04,36,5.10
2018,10,29,04,37,5.10
2018,10,29,04,38,5.10
2018,10,29,04,39,5.00
2018,10,29,04,40,5.00
2018,10,29,04,41,5.00
2018,10,29,04,42,5.10
2018,10,29,04,43,5.00
2018,10,29,04,44,5.10
2018,10,29,04,45,5.10
2018,10,29,04,46,5.10
2018,10,29,04,47,5.10
2018,10,29,04,48,5.10
2018,10,29,04,49,5.10
2018,10,29,04,50,5.10
2018,10,29,04,51,5.10
2018,10,29,04,52,5.00
2018,10,29,04,53,5.00
2018,10,29,04,54,5.00
2018,10,29,04,55,5.00
2018,10,29,04,56,5.00
2018,10,29,04,57,5.00
2018,10,29,04,58,5.00
2018,10,29,04,59,5.00
2018,10,29,05,00,5.00
2018,10,29,05,01,5.00
2018,10,29,05,02,5.10
2018,10,29,05,03,5.10
2018,10,29,05,04,5.10
2018,10,29,05,05,5.10
2018,10,29,05,06,5.10
2018,10,29,05,07,5.10
2018,10,29,05,08,5.10
2018,10,29,05,09,5.10
2018,10,29,05,10,5.10
2018,10,29,05,11,5.10
2018,10,29,05,12,5.10
2018,10,29,05,13,5.10
2018,10,29,05,14,5.10
2018,10,29,05,15,5.10
2018,10,29,05,16,5.10
2018,10,29,05,17,5.10
2018,10,29,05,18,5.10
2018,10,29,05,19,5.10
2018,10,29,05,20,5.00
2018,10,29,05,21,5.00
2018,10,29,05,22,5.00
2018,10,29,05,23,5.00
2018,10,29,05,24,5.00
2018,10,29,05,25,5.00
2018,10,29,05,26,4.90
2018,10,29,05,27,4.90
2018,10,29,05,28,4.90
2018,10,29,05,29,4.90
2018,10,29,05,30,4.90
2018,10,29,05,31,4.90
2018,10,29,05,32,4.90
2018,10,29,05,33,4.90
2018,10,29,05,34,4.90
2018,10,29,05,35,4.90
2018,10,29,05,36,4.90
2018,10,29,05,37,4.90
2018,10,29,05,38,4.90
2018,10,29,05,39,4.90
2018,10,29,05,40,4.90
2018,10,29,05,41,4.90
2018,10,29,05,42,4.90
2018,10,29,05,43,4.90
2018,10,29,05,44,4.90
2018,10,29,05,45,4.90
2018,10,29,05,46,4.90
2018,10,29,05,47,4.90
2018,10,29,05,48,4.90
2018,10,29,05,49,4.90
2018,10,29,05,50,4.90
2018,10,29,05,51,4.90
2018,10,29,05,52,4.90
2018,10,29,05,53,4.90
2018,10,29,05,54,4.90
2018,10,29,05,55,4.90
2018,10,29,05,56,4.90
2018,10,29,05,57,4.90
2018,10,29,05,58,4.90
2018,10,29,05,59,4.90
2018,10,29,06,00,4.90
2018,10,29,06,01,4.90
2018,10,29,06,02,4.80
2018,10,29,06,03,4.80
2018,10,29,06,04,4.80
2018,10,29,06,05,4.80
2018,10,29,06,06,4.80
2018,10,29,06,07,4.80
2018,10,29,06,08,4.80
2018,10,29,06,09,4.80
2018,10,29,06,10,4.70
2018,10,29,06,11,4.80
2018,10,29,06,12,4.80
2018,10,29,06,13,4.80
2018,10,29,06,14,4.80
2018,10,29,06,15,4.70
2018,10,29,06,16,4.70
2018,10,29,06,17,4.70
2018,10,29,06,18,4.70
2018,10,29,06,19,4.70
2018,10,29,06,20,4.70
2018,10,29,06,21,4.70
2018,10,29,06,22,4.70
2018,10,29,06,23,4.70
2018,10,29,06,24,4.70
2018,10,29,06,25,4.70
2018,10,29,06,26,4.70
2018,10,29,06,27,4.70
2018,10,29,06,28,4.70
2018,10,29,06,29,4.70
2018,10,29,06,30,4.70
2018,10,29,06,31,4.70
2018,10,29,06,32,4.70
2018,10,29,06,33,4.70
2018,10,29,06,34,4.70
2018,10,29,06,35,4.70
2018,10,29,06,36,4.70
2018,10,29,06,37,4.70
2018,10,29,06,38,4.70
2018,10,29,06,39,4.70
2018,10,29,06,40,4.70
2018,10,29,06,41,4.70
2018,10,29,06,42,4.70
2018,10,29,06,43,4.80
2018,10,29,06,44,4.80
2018,10,29,06,45,4.80
2018,10,29,06,46,4.80
2018,10,29,06,47,4.80
2018,10,29,06,48,4.80
2018,10,29,06,49,4.80
2018,10,29,06,50,4.80
2018,10,29,06,51,4.80
2018,10,29,06,52,4.80
2018,10,29,06,53,4.80
2018,10,29,06,54,4.80
2018,10,29,06,55,4.80
2018,10,29,06,56,4.80
2018,10,29,06,57,4.80
2018,10,29,06,58,4.80
2018,10,29,06,59,4.80
2018,10,29,07,00,4.80
2018,10,29,07,01,4.80
2018,10,29,07,02,4.80
2018,10,29,07,03,4.80
2018,10,29,07,04,4.80
2018,10,29,07,05,4.80
2018,10,29,07,06,4.80
2018,10,29,07,07,4.80
2018,10,29,07,08,4.80
2018,10,29,07,09,4.80
2018,10,29,07,10,4.80
2018,10,29,07,11,4.80
2018,10,29,07,12,4.80
2018,10,29,07,13,4.80
2018,10,29,07,14,4.80
2018,10,29,07,15,4.80
2018,10,29,07,16,4.80
2018,10,29,07,17,4.80
2018,10,29,07,18,4.80
2018,10,29,07,19,4.80
2018,10,29,07,20,4.80
2018,10,29,07,21,4.80
2018,10,29,07,22,4.80
2018,10,29,07,23,4.80
2018,10,29,07,24,4.80
2018,10,29,07,25,4.80
2018,10,29,07,26,4.80
2018,10,29,07,27,4.80
2018,10,29,07,28,4.80
2018,10,29,07,29,4.80
2018,10,29,07,30,4.80
2018,10,29,07,31,4.80
2018,10,29,07,32,4.80
2018,10,29,07,33,4.80
2018,10,29,07,34,4.80
2018,10,29,07,35,4.80
2018,10,29,07,36,4.80
2018,10,29,07,37,4.80
2018,10,29,07,38,4.80
2018,10,29,07,39,4.80
2018,10,29,07,40,4.80
2018,10,29,07,41,4.80
2018,10,29,07,42,4.80
2018,10,29,07,43,4.80
2018,10,29,07,44,4.80
2018,10,29,07,45,4.80
2018,10,29,07,46,4.80
2018,10,29,07,47,4.80
2018,10,29,07,48,4.90
2018,10,29,07,49,4.90
2018,10,29,07,50,4.90
2018,10,29,07,51,4.90
2018,10,29,07,52,4.90
2018,10,29,07,53,4.90
2018,10,29,07,54,4.90
2018,10,29,07,55,5.00
2018,10,29,07,56,5.00
2018,10,29,07,57,5.00
2018,10,29,07,58,5.10
2018,10,29,07,59,5.10
2018,10,29,08,00,5.10
2018,10,29,08,01,5.10
2018,10,29,08,02,5.10
2018,10,29,08,03,5.20
2018,10,29,08,04,5.20
2018,10,29,08,05,5.20
2018,10,29,08,06,5.20
2018,10,29,08,07,5.20
2018,10,29,08,08,5.30
2018,10,29,08,09,5.30
2018,10,29,13,56,11.50
2018,10,29,13,57,11.60
2018,10,29,13,58,11.60
2018,10,29,13,59,11.70
2018,10,29,14,00,11.70
2018,10,29,14,01,11.70
2018,10,29,14,02,11.70
2018,10,29,14,03,11.70
2018,10,29,14,04,11.70
2018,10,29,14,05,11.70
2018,10,29,14,06,11.70
2018,10,29,14,07,11.70
2018,10,29,14,08,11.70
2018,10,29,14,09,11.60
2018,10,29,14,10,11.60
2018,10,29,14,11,11.50
2018,10,29,14,12,11.50
2018,10,29,14,13,11.50
2018,10,29,14,14,11.50
2018,10,29,14,15,11.40
2018,10,29,14,16,11.40
2018,10,29,14,17,11.40
2018,10,29,14,18,11.40
2018,10,29,14,19,11.40
2018,10,29,14,20,11.50
2018,10,29,14,21,11.50
2018,10,29,14,22,11.60
2018,10,29,14,23,11.60
2018,10,29,14,24,11.70
2018,10,29,14,25,11.70
2018,10,29,14,26,11.70
2018,10,29,14,27,11.70
2018,10,29,14,28,11.70
2018,10,29,14,29,11.80
2018,10,29,14,30,11.80
2018,10,29,14,31,11.90
2018,10,29,14,32,11.90
2018,10,29,14,33,11.90
2018,10,29,14,34,11.90
2018,10,29,14,35,11.90
2018,10,29,14,36,11.90
2018,10,29,14,37,12.00
2018,10,29,14,38,12.00
2018,10,29,14,39,12.00
2018,10,29,14,40,12.00
2018,10,29,14,41,12.00
2018,10,29,14,42,12.00
2018,10,29,14,43,12.00
2018,10,29,14,44,12.00
2018,10,29,14,45,12.00
2018,10,29,14,46,12.00
2018,10,29,14,47,12.00
2018,10,29,14,48,12.10
2018,10,29,14,49,12.10
2018,10,29,14,50,12.10
2018,10,29,14,51,12.10
2018,10,29,14,52,12.20
2018,10,29,14,53,12.20
2018,10,29,14,54,12.10
2018,10,29,14,55,12.20
2018,10,29,14,56,12.20
2018,10,29,14,57,12.30
2018,10,29,14,58,12.30
2018,10,29,14,59,12.40
2018,10,29,15,00,12.40
2018,10,29,15,01,12.40
2018,10,29,15,02,12.40
2018,10,29,15,03,12.50
2018,10,29,15,04,12.50
2018,10,29,15,05,12.50
2018,10,29,15,06,12.40
2018,10,29,15,07,12.40
2018,10,29,15,08,12.50
2018,10,29,15,09,12.50
2018,10,29,15,10,12.50
2018,10,29,15,11,12.50
2018,10,29,15,12,12.50
2018,10,29,15,13,12.60
2018,10,29,15,14,12.60
2018,10,29,15,15,12.70
2018,10,29,15,16,12.70
2018,10,29,15,17,12.80
2018,10,29,15,18,12.80
2018,10,29,15,19,12.90
2018,10,29,15,20,12.90
2018,10,29,15,21,12.90
2018,10,29,15,22,12.90
2018,10,29,15,23,13.00
2018,10,29,15,24,13.00
2018,10,29,15,25,13.00
2018,10,29,15,26,13.00
2018,10,29,15,27,12.90
2018,10,29,15,28,12.90
2018,10,29,15,29,12.90
2018,10,29,15,30,12.80
2018,10,29,15,31,12.70
2018,10,29,15,32,12.60
2018,10,29,15,33,12.50
2018,10,29,15,34,12.50
2018,10,29,15,35,12.40
2018,10,29,15,36,12.40
2018,10,29,15,37,12.30
2018,10,29,15,38,12.30
2018,10,29,15,39,12.30
2018,10,29,15,40,12.30
2018,10,29,15,41,12.30
2018,10,29,15,42,12.30
2018,10,29,15,43,12.40
2018,10,29,15,44,12.40
2018,10,29,15,45,12.30
2018,10,29,15,46,12.30
2018,10,29,15,47,12.30
2018,10,29,15,48,12.30
2018,10,29,15,49,12.30
2018,10,29,15,50,12.30
2018,10,29,15,51,12.20
2018,10,29,15,52,12.20
2018,10,29,15,53,12.20
2018,10,29,15,54,12.20
2018,10,29,15,55,12.30
2018,10,29,15,56,12.30
2018,10,29,15,57,12.40
2018,10,29,15,58,12.50
2018,10,29,15,59,12.50
2018,10,29,16,00,12.60
2018,10,29,16,01,12.60
2018,10,29,16,02,12.70
2018,10,29,16,03,12.70
2018,10,29,16,04,12.80
2018,10,29,16,05,12.80
2018,10,29,16,06,12.90
2018,10,29,16,07,12.90
2018,10,29,16,08,12.90
2018,10,29,16,09,12.80
2018,10,29,16,10,12.80
2018,10,29,16,11,12.80
2018,10,29,16,12,12.80
2018,10,29,16,13,12.80
2018,10,29,16,14,12.80
2018,10,29,16,15,12.80
2018,10,29,16,16,12.80
2018,10,29,16,17,12.70
2018,10,29,16,18,12.70
2018,10,29,16,19,12.70
2018,10,29,16,20,12.60
2018,10,29,16,21,12.50
2018,10,29,16,22,12.50
2018,10,29,16,23,12.40
2018,10,29,16,24,12.30
2018,10,29,16,25,12.30
2018,10,29,16,26,12.20
2018,10,29,16,27,12.20
2018,10,29,16,28,12.10
2018,10,29,16,29,12.10
2018,10,29,16,30,12.00
2018,10,29,16,31,12.00
2018,10,29,16,32,12.00
2018,10,29,16,33,11.90
2018,10,29,16,34,11.90
2018,10,29,16,35,11.90
2018,10,29,16,36,11.90
2018,10,29,16,37,11.90
2018,10,29,16,38,11.90
2018,10,29,16,39,11.80
2018,10,29,16,40,11.80
2018,10,29,16,41,11.80
2018,10,29,16,42,11.80
2018,10,29,16,43,11.80
2018,10,29,16,44,11.80
2018,10,29,16,45,11.80
2018,10,29,16,46,11.80
2018,10,29,16,47,11.80
2018,10,29,16,48,11.80
2018,10,29,16,49,11.70
2018,10,29,16,50,11.70
2018,10,29,16,51,11.70
2018,10,29,16,52,11.70
2018,10,29,16,53,11.70
2018,10,29,16,54,11.70
2018,10,29,16,55,11.70
2018,10,29,16,56,11.70
2018,10,29,16,57,11.80
2018,10,29,16,58,11.80
2018,10,29,16,59,11.80
2018,10,29,17,00,11.80
2018,10,29,17,01,11.80
2018,10,29,17,02,11.80
2018,10,29,17,03,11.80
2018,10,29,17,04,11.80
2018,10,29,17,05,11.80
2018,10,29,17,06,11.80
2018,10,29,17,07,11.80
2018,10,29,17,08,11.80
2018,10,29,17,09,11.80
2018,10,29,17,10,11.80
2018,10,29,17,11,11.80
2018,10,29,17,12,11.70
2018,10,29,17,13,11.70
2018,10,29,17,14,11.70
2018,10,29,17,15,11.70
2018,10,29,17,16,11.70
2018,10,29,17,17,11.70
2018,10,29,17,18,11.60
2018,10,29,17,19,11.60
2018,10,29,17,20,11.60
2018,10,29,17,21,11.60
2018,10,29,17,22,11.50
2018,10,29,17,23,11.50
2018,10,29,17,24,11.50
2018,10,29,17,25,11.40
2018,10,29,17,26,11.40
2018,10,29,17,27,11.40
2018,10,29,17,28,11.30
2018,10,29,17,29,11.30
2018,10,29,17,30,11.30
2018,10,29,17,31,11.20
2018,10,29,17,32,11.20
2018,10,29,17,33,11.20
2018,10,29,17,34,11.20
2018,10,29,17,35,11.20
2018,10,29,17,36,11.20
2018,10,29,17,37,11.20
2018,10,29,17,38,11.10
2018,10,29,17,39,11.10
2018,10,29,17,40,11.10
2018,10,29,17,41,11.10
2018,10,29,17,42,11.10
2018,10,29,17,43,11.00
2018,10,29,17,44,11.00
2018,10,29,17,45,11.00
2018,10,29,17,46,10.90
2018,10,29,17,47,10.90
2018,10,29,17,48,10.90
2018,10,29,17,49,10.90
2018,10,29,17,50,10.80
2018,10,29,17,51,10.80
2018,10,29,17,52,10.80
2018,10,29,17,53,10.80
2018,10,29,17,54,10.80
2018,10,29,17,55,10.80
2018,10,29,17,56,10.70
2018,10,29,17,57,10.70
2018,10,29,17,58,10.70
2018,10,29,17,59,10.70
2018,10,29,18,00,10.70
2018,10,29,18,01,10.70
2018,10,29,18,02,10.70
2018,10,29,18,03,10.70
2018,10,29,18,04,10.70
2018,10,29,18,05,10.70
2018,10,29,18,06,10.70
2018,10,29,18,07,10.70
2018,10,29,18,08,10.70
2018,10,29,18,09,10.70
2018,10,29,18,10,10.60
2018,10,29,18,11,10.60
2018,10,29,18,12,10.60
2018,10,29,18,13,10.60
2018,10,29,18,14,10.50
2018,10,29,18,15,10.50
2018,10,29,18,16,10.50
2018,10,29,18,17,10.50
2018,10,29,18,18,10.50
2018,10,29,18,19,10.40
2018,10,29,18,20,10.40
2018,10,29,18,21,10.40
2018,10,29,18,22,10.40
2018,10,29,18,23,10.40
2018,10,29,18,24,10.40
2018,10,29,18,25,10.40
2018,10,29,18,26,10.40
2018,10,29,18,27,10.40
2018,10,29,18,28,10.40
2018,10,29,18,29,10.40
2018,10,29,18,30,10.40
2018,10,29,18,31,10.40
2018,10,29,18,32,10.40
2018,10,29,18,33,10.30
2018,10,29,18,34,10.40
2018,10,29,18,35,10.40
2018,10,29,18,36,10.40
2018,10,29,18,37,10.40
2018,10,29,18,38,10.40
2018,10,29,18,39,10.40
2018,10,29,18,40,10.30
2018,10,29,18,41,10.30
2018,10,29,18,42,10.30
2018,10,29,18,43,10.30
2018,10,29,18,44,10.30
2018,10,29,18,45,10.30
2018,10,29,18,46,10.30
2018,10,29,18,47,10.30
2018,10,29,18,48,10.30
2018,10,29,18,49,10.20
2018,10,29,18,50,10.20
2018,10,29,18,51,10.20
2018,10,29,18,52,10.20
2018,10,29,18,53,10.20
2018,10,29,18,54,10.20
2018,10,29,18,55,10.20
2018,10,29,18,56,10.20
2018,10,29,18,57,10.20
2018,10,29,18,58,10.20
2018,10,29,18,59,10.20
2018,10,29,19,00,10.20
2018,10,29,19,01,10.10
2018,10,29,19,02,10.10
2018,10,29,19,03,10.10
2018,10,29,19,04,10.10
2018,10,29,19,05,10.10
2018,10,29,19,06,10.10
2018,10,29,19,07,10.10
2018,10,29,19,08,10.10
2018,10,29,19,09,10.00
2018,10,29,19,10,10.00
2018,10,29,19,11,10.00
2018,10,29,19,12,9.90
2018,10,29,19,13,9.90
2018,10,29,19,14,9.90
2018,10,29,19,15,9.90
2018,10,29,19,16,9.80
2018,10,29,19,17,9.80
2018,10,29,19,18,9.80
2018,10,29,19,19,9.80
2018,10,29,19,20,9.80
2018,10,29,19,21,9.80
2018,10,29,19,22,9.80
2018,10,29,19,23,9.80
2018,10,29,19,24,9.70
2018,10,29,19,25,9.70
2018,10,29,19,26,9.70
2018,10,29,19,27,9.70
2018,10,29,19,28,9.70
2018,10,29,19,29,9.70
2018,10,29,19,30,9.70
2018,10,29,19,31,9.60
2018,10,29,19,32,9.60
2018,10,29,19,33,9.60
2018,10,29,19,34,9.60
2018,10,29,19,35,9.60
2018,10,29,19,36,9.60
2018,10,29,19,37,9.60
2018,10,29,19,38,9.60
2018,10,29,19,39,9.60
2018,10,29,19,40,9.50
2018,10,29,19,41,9.50
2018,10,29,19,42,9.50
2018,10,29,19,43,9.50
2018,10,29,19,44,9.50
2018,10,29,19,45,9.50
2018,10,29,19,46,9.50
2018,10,29,19,47,9.50
2018,10,29,19,48,9.50
2018,10,29,19,49,9.40
2018,10,29,19,50,9.40
2018,10,29,19,51,9.40
2018,10,29,19,52,9.40
2018,10,29,19,53,9.30
2018,10,29,19,54,9.30
2018,10,29,19,55,9.30
2018,10,29,19,56,9.30
2018,10,29,19,57,9.30
2018,10,29,19,58,9.30
2018,10,29,19,59,9.30
2018,10,29,20,00,9.20
2018,10,29,20,01,9.20
2018,10,29,20,02,9.20
2018,10,29,20,03,9.20
2018,10,29,20,04,9.20
2018,10,29,20,05,9.20
2018,10,29,20,06,9.20
2018,10,29,20,07,9.10
2018,10,29,20,08,9.10
2018,10,29,20,09,9.10
2018,10,29,20,10,9.10
2018,10,29,20,11,9.10
2018,10,29,20,12,9.10
2018,10,29,20,13,9.10
2018,10,29,20,14,9.10
2018,10,29,20,15,9.00
2018,10,29,20,16,9.00
2018,10,29,20,17,9.00
2018,10,29,20,18,9.00
2018,10,29,20,19,9.00
2018,10,29,20,20,9.00
2018,10,29,20,21,9.00
2018,10,29,20,22,8.90
2018,10,29,20,23,8.90
2018,10,29,20,24,8.90
2018,10,29,20,25,8.90
2018,10,29,20,26,8.90
2018,10,29,20,27,8.90
2018,10,29,20,28,8.90
2018,10,29,20,29,8.90
2018,10,29,20,30,8.90
2018,10,29,20,31,8.90
2018,10,29,20,32,8.80
2018,10,29,20,33,8.80
2018,10,29,20,34,8.80
2018,10,29,20,35,8.80
2018,10,29,20,36,8.80
2018,10,29,20,37,8.80
2018,10,29,20,38,8.80
2018,10,29,20,39,8.80
2018,10,29,20,40,8.80
2018,10,29,20,41,8.80
2018,10,29,20,42,8.80
2018,10,29,20,43,8.70
2018,10,29,20,44,8.70
2018,10,29,20,45,8.70
2018,10,29,20,46,8.70
2018,10,29,20,47,8.70
2018,10,29,20,48,8.70
2018,10,29,20,49,8.70
2018,10,29,20,50,8.70
2018,10,29,20,51,8.70
2018,10,29,20,52,8.70
2018,10,29,20,53,8.70
2018,10,29,20,54,8.60
2018,10,29,20,55,8.60
2018,10,29,20,56,8.60
2018,10,29,20,57,8.60
2018,10,29,20,58,8.60
2018,10,29,20,59,8.60
2018,10,29,21,00,8.60
2018,10,29,21,01,8.60
2018,10,29,21,02,8.60
2018,10,29,21,03,8.60
2018,10,29,21,04,8.60
2018,10,29,21,05,8.60
2018,10,29,21,06,8.50
2018,10,29,21,07,8.60
2018,10,29,21,08,8.60
2018,10,29,21,09,8.60
2018,10,29,21,10,8.60
2018,10,29,21,11,8.60
2018,10,29,21,12,8.60
2018,10,29,21,13,8.60
2018,10,29,21,14,8.60
2018,10,29,21,15,8.60
2018,10,29,21,16,8.60
2018,10,29,21,17,8.60
2018,10,29,21,18,8.60
2018,10,29,21,19,8.60
2018,10,29,21,20,8.60
2018,10,29,21,21,8.60
2018,10,29,21,22,8.60
2018,10,29,21,23,8.60
2018,10,29,21,24,8.60
2018,10,29,21,25,8.60
2018,10,29,21,26,8.60
2018,10,29,21,27,8.60
2018,10,29,21,28,8.60
2018,10,29,21,29,8.60
2018,10,29,21,30,8.60
2018,10,29,21,31,8.60
2018,10,29,21,32,8.60
2018,10,29,21,33,8.60
2018,10,29,21,34,8.60
2018,10,29,21,35,8.60
2018,10,29,21,36,8.60
2018,10,29,21,37,8.60
2018,10,29,21,38,8.60
2018,10,29,21,39,8.60
2018,10,29,21,40,8.60
2018,10,29,21,41,8.60
2018,10,29,21,42,8.60
2018,10,29,21,43,8.70
2018,10,29,21,44,8.70
2018,10,29,21,45,8.70
2018,10,29,21,46,8.70
2018,10,29,21,47,8.70
2018,10,29,21,48,8.70
2018,10,29,21,49,8.70
2018,10,29,21,50,8.70
2018,10,29,21,51,8.70
2018,10,29,21,52,8.70
2018,10,29,21,53,8.70
2018,10,29,21,54,8.70
2018,10,29,21,55,8.70
2018,10,29,21,56,8.70
2018,10,29,21,57,8.70
2018,10,29,21,58,8.70
2018,10,29,21,59,8.70
2018,10,29,22,00,8.70
2018,10,29,22,01,8.70
2018,10,29,22,02,8.70
2018,10,29,22,03,8.70
2018,10,29,22,04,8.70
2018,10,29,22,05,8.70
2018,10,29,22,06,8.70
2018,10,29,22,07,8.70
2018,10,29,22,08,8.60
2018,10,29,22,09,8.60
2018,10,29,22,10,8.60
2018,10,29,22,11,8.70
2018,10,29,22,12,8.70
2018,10,29,22,13,8.70
2018,10,29,22,14,8.70
2018,10,29,22,15,8.70
2018,10,29,22,16,8.70
2018,10,29,22,17,8.60
2018,10,29,22,18,8.60
2018,10,29,22,19,8.60
2018,10,29,22,20,8.70
2018,10,29,22,21,8.70
2018,10,29,22,22,8.70
2018,10,29,22,23,8.60
2018,10,29,22,24,8.60
2018,10,29,22,25,8.60
2018,10,29,22,26,8.60
2018,10,29,22,27,8.60
2018,10,29,22,28,8.60
2018,10,29,22,29,8.60
2018,10,29,22,30,8.60
2018,10,29,22,31,8.60
2018,10,29,22,32,8.60
2018,10,29,22,33,8.60
2018,10,29,22,34,8.60
2018,10,29,22,35,8.60
2018,10,29,22,36,8.60
2018,10,29,22,37,8.60
2018,10,29,22,38,8.60
2018,10,29,22,39,8.70
2018,10,29,22,40,8.70
2018,10,29,22,41,8.70
2018,10,29,22,42,8.70
2018,10,29,22,43,8.70
2018,10,29,22,44,8.70
2018,10,29,22,45,8.70
2018,10,29,22,46,8.70
2018,10,29,22,47,8.70
2018,10,29,22,48,8.70
2018,10,29,22,49,8.70
2018,10,29,22,50,8.70
2018,10,29,22,51,8.70
2018,10,29,22,52,8.70
2018,10,29,22,53,8.70
2018,10,29,22,54,8.70
2018,10,29,22,55,8.80
2018,10,29,22,56,8.70
2018,10,29,22,57,8.80
2018,10,29,22,58,8.80
2018,10,29,22,59,8.80
2018,10,29,23,00,8.80
2018,10,29,23,01,8.80
2018,10,29,23,02,8.80
2018,10,29,23,03,8.80
2018,10,29,23,04,8.80
2018,10,29,23,05,8.80
2018,10,29,23,06,8.70
2018,10,29,23,07,8.70
2018,10,29,23,08,8.70
2018,10,29,23,09,8.70
2018,10,29,23,10,8.70
2018,10,29,23,11,8.70
2018,10,29,23,12,8.70
2018,10,29,23,13,8.70
2018,10,29,23,14,8.70
2018,10,29,23,15,8.70
2018,10,29,23,16,8.70
2018,10,29,23,17,8.70
2018,10,29,23,18,8.80
2018,10,29,23,19,8.80
2018,10,29,23,20,8.80
2018,10,29,23,21,8.80
2018,10,29,23,22,8.80
2018,10,29,23,23,8.80
2018,10,29,23,24,8.80
2018,10,29,23,25,8.80
2018,10,29,23,26,8.80
2018,10,29,23,27,8.80
2018,10,29,23,28,8.80
2018,10,29,23,29,8.80
2018,10,29,23,30,8.80
2018,10,29,23,31,8.80
2018,10,29,23,32,8.80
2018,10,29,23,33,8.80
2018,10,29,23,34,8.80
2018,10,29,23,35,8.80
2018,10,29,23,36,8.80
2018,10,29,23,37,8.80
2018,10,29,23,38,8.80